Regional Weather Roundup
Issued by NWS

Home | Current Version | Previous Version | Graphics & Text | Print | Product List | Glossary On
Versions: 1 2 3 4 5 6 7 8 9 10 11 12 13 14 15 16 17 18 19 20 21 22 23 24 25 26 27 28 29 30 31 32 33 34 35 36 37 38 39 40 41 42 43 44 45 46 47 48 49 50
000
ASUS43 KTOP 232259
RWRKS

WEATHER ROUNDUP FOR KANSAS
NATIONAL WEATHER SERVICE GOODLAND KS
600 PM CDT SAT MAY 23 2015

NOTE:  "FAIR" INDICATES FEW OR NO CLOUDS BELOW 12,000 FEET WITH NO
SIGNIFICANT WEATHER AND/OR OBSTRUCTIONS TO VISIBILITY.

KSZ001>006-013>018-027>032-041>047-240000-
NORTHWEST KANSAS

CITY           SKY/WX    TMP DP  RH WIND       PRES   REMARKS
GOODLAND       CLOUDY    64  56  75 SE16G26   29.88F
HAYS           CLOUDY    61  52  72 E13       29.94F
HILL CITY      CLOUDY    61  55  81 SE14G22   29.94S
RUSSELL        CLOUDY    60  58  92 E14       29.93F
$$

KSZ061>065-074>080-084>089-240000-
SOUTHWEST KANSAS

CITY           SKY/WX    TMP DP  RH WIND       PRES   REMARKS
DODGE CITY     CLOUDY    61  56  83 S16       29.92S
ELKHART          N/A     65  54  68 SE20        N/A
GARDEN CITY    CLOUDY    62  57  83 S17G23    29.88F
GREAT BEND     CLOUDY    59  55  88 E6        29.93S
LIBERAL        CLOUDY    63  57  82 SE13      29.89F
$$

KSZ066>073-081>083-090>101-240000-
SOUTHEAST KANSAS

CITY           SKY/WX    TMP DP  RH WIND       PRES   REMARKS
CHANUTE        RAIN      65  64  97 E9        30.01S FOG
COFFEYVILLE    LGT RAIN  69  67  93 SE12      29.98F
HUTCHINSON     LGT RAIN  60  57  89 SE16      29.94F
NEWTON         CLOUDY    57  54  88 E9        30.02F
PARSONS        LGT RAIN  68  68 100 SE7       30.01F
WICHITA INTL   TSTM      59  57  93 E14       29.99F
WICHITA JABRA  RAIN      58  57  97 NE12      30.01F
WICHITA MCCONL RAIN      59  57  94 NE13      30.02S FOG
WINFIELD       HVY RAIN  59  59 100 N12G21    30.02R FOG
$$

KSZ007>012-019>026-033>040-048>060-102>105-240000-
NORTHEAST KANSAS

CITY           SKY/WX    TMP DP  RH WIND       PRES   REMARKS
CONCORDIA      CLOUDY    60  58  92 E10G20    29.97F
EMPORIA        RAIN      59  58  96 NE9       30.04F FOG
LAWRENCE       LGT RAIN  66  60  81 E12       30.05F
MANHATTAN      RAIN      61  60  97 E8        30.03F FOG
OLATHE IND     CLOUDY    65  60  84 SE9       30.06F
OLATHE EXE     CLOUDY    65  60  84 E10G18    30.05F
SALINA         LGT RAIN  60  58  92 E26G41    29.86F
TOPEKA BILLARD TSTM      63  62  97 W9        30.07R FOG
TOPEKA FORBES  TSTM      64  61  90 NW12      30.06R VSB 1/2
$$



USA.gov is the U.S. government's official web portal to all federal, state and local government web resources and services.